| time (UTC) | temp F | wind direction | speed MPH | gust MPH | rain 1hr in | rain 24hr in | rain mn in | humidity % | barometer mb |
| 20260901050008 | 61 | 318 | 0.0 | 0.0 | 0.00 | 0.00 | 0.00 | 63 | 1012.4 |
| 20260901044507 | 61 | 318 | 0.0 | 0.0 | 0.00 | 0.00 | 0.00 | 63 | 1012.3 |
| 20260901043006 | 62 | 318 | 0.0 | 0.0 | 0.00 | 0.00 | 0.00 | 61 | 1012.4 |
| 20260901041505 | 62 | 318 | 0.0 | 0.0 | 0.00 | 0.00 | 0.00 | 60 | 1012.2 |
| 20260901040005 | 63 | 318 | 0.0 | 0.0 | 0.00 | 0.00 | 0.00 | 58 | 1012.3 |
| 20260901034503 | 64 | 318 | 0.0 | 0.0 | 0.00 | 0.00 | 0.00 | 56 | 1012.3 |
| 20260901033001 | 66 | 318 | 0.0 | 0.0 | 0.00 | 0.00 | 0.00 | 54 | 1011.9 |
| 20260901031600 | 67 | 317 | 0.0 | 0.0 | 0.00 | 0.00 | 0.00 | 51 | 1011.7 |
| 20260901030107 | 68 | 318 | 0.0 | 0.0 | 0.00 | 0.00 | 0.00 | 50 | 1011.5 |
| 20260901024600 | 70 | 315 | 0.0 | 0.0 | 0.00 | 0.00 | 0.00 | 48 | 1011.3 |
| 20260901023102 | 71 | 315 | 0.0 | 0.0 | 0.00 | 0.00 | 0.00 | 47 | 1010.9 |
| 20260901021556 | 72 | 315 | 0.0 | 0.0 | 0.00 | 0.00 | 0.00 | 47 | 1011.0 |
| 20260901020057 | 72 | 315 | 0.0 | 0.0 | 0.00 | 0.00 | 0.00 | 46 | 1010.7 |
| 20260901014554 | 73 | 303 | 0.0 | 2.0 | 0.00 | 0.00 | 0.00 | 44 | 1010.6 |
| 20260901013059 | 74 | 295 | 0.0 | 5.0 | 0.00 | 0.00 | 0.00 | 43 | 1010.5 |
| 20260901011553 | 75 | 291 | 0.0 | 5.0 | 0.00 | 0.00 | 0.00 | 41 | 1010.6 |
| 20260901010107 | 76 | 291 | 0.0 | 11.0 | 0.00 | 0.00 | 0.00 | 40 | 1010.7 |
| 20260901004552 | 77 | 311 | 0.0 | 10.0 | 0.00 | 0.00 | 0.00 | 40 | 1010.6 |
| 20260901003052 | 78 | 267 | 0.0 | 8.0 | 0.00 | 0.00 | 0.00 | 42 | 1010.5 |
| 20260901001551 | 78 | 306 | 0.0 | 12.0 | 0.00 | 0.00 | 0.00 | 42 | 1010.7 |
| 20260901000051 | 79 | 294 | 0.0 | 12.0 | 0.00 | 0.00 | 0.00 | 42 | 1010.8 |
| 20260831234549 | 79 | 284 | 0.0 | 8.0 | 0.00 | 0.00 | 0.00 | 42 | 1010.8 |
| 20260831233048 | 80 | 306 | 3.0 | 12.0 | 0.00 | 0.00 | 0.00 | 41 | 1010.7 |
| 20260831231546 | 80 | 226 | 0.0 | 12.0 | 0.00 | 0.00 | 0.00 | 41 | 1010.6 |
| 20260831230058 | 81 | 307 | 0.0 | 11.0 | 0.00 | 0.00 | 0.00 | 40 | 1010.9 |
| 20260831224543 | 82 | 350 | 0.0 | 13.0 | 0.00 | 0.00 | 0.00 | 38 | 1010.9 |
| 20260831223041 | 83 | 272 | 0.0 | 10.0 | 0.00 | 0.00 | 0.00 | 36 | 1011.0 |
| 20260831221545 | 84 | 314 | 0.0 | 1.0 | 0.00 | 0.00 | 0.00 | 34 | 1011.1 |
| 20260831220038 | 85 | 300 | 0.0 | 11.0 | 0.00 | 0.00 | 0.00 | 33 | 1011.3 |
| 20260831214542 | 85 | 300 | 2.0 | 10.0 | 0.00 | 0.00 | 0.00 | 32 | 1011.1 |
| 20260831213039 | 86 | 300 | 0.0 | 12.0 | 0.00 | 0.00 | 0.00 | 32 | 1011.3 |
| 20260831211534 | 87 | 323 | 1.0 | 10.0 | 0.00 | 0.00 | 0.00 | 30 | 1011.5 |
| 20260831210031 | 88 | 303 | 0.0 | 7.0 | 0.00 | 0.00 | 0.00 | 29 | 1011.3 |
| 20260831204530 | 88 | 305 | 0.0 | 13.0 | 0.00 | 0.00 | 0.00 | 29 | 1011.4 |
| 20260831203027 | 88 | 337 | 0.0 | 10.0 | 0.00 | 0.00 | 0.00 | 28 | 1011.6 |
| 20260831201529 | 88 | 318 | 3.0 | 13.0 | 0.00 | 0.00 | 0.00 | 27 | 1011.7 |
| 20260831200024 | 88 | 319 | 0.0 | 12.0 | 0.00 | 0.00 | 0.00 | 27 | 1011.6 |
| 20260831194521 | 87 | 308 | 0.0 | 11.0 | 0.00 | 0.00 | 0.00 | 27 | 1011.7 |
| 20260831193031 | 86 | 321 | 4.0 | 16.0 | 0.00 | 0.00 | 0.00 | 28 | 1011.9 |
| 20260831191518 | 87 | 286 | 0.0 | 11.0 | 0.00 | 0.00 | 0.00 | 28 | 1012.1 |
| 20260831190017 | 86 | 294 | 3.0 | 15.0 | 0.00 | 0.00 | 0.00 | 28 | 1012.1 |
| 20260831184512 | 86 | 290 | 1.0 | 12.0 | 0.00 | 0.00 | 0.00 | 27 | 1012.3 |
| 20260831183009 | 85 | 286 | 0.0 | 9.0 | 0.00 | 0.00 | 0.00 | 27 | 1012.2 |
| 20260831181506 | 85 | 300 | 0.0 | 13.0 | 0.00 | 0.00 | 0.00 | 27 | 1012.1 |
| 20260831180002 | 84 | 286 | 0.0 | 7.0 | 0.00 | 0.00 | 0.00 | 28 | 1011.9 |
| 20260831174504 | 84 | 284 | 0.0 | 6.0 | 0.00 | 0.00 | 0.00 | 31 | 1012.1 |
| 20260831173100 | 84 | 290 | 1.0 | 14.0 | 0.00 | 0.00 | 0.00 | 28 | 1011.9 |
| 20260831171558 | 83 | 299 | 0.0 | 0.0 | 0.00 | 0.00 | 0.00 | 28 | 1011.7 |
| 20260831170055 | 82 | 301 | 0.0 | 6.0 | 0.00 | 0.00 | 0.00 | 24 | 1012.0 |
| 20260831164551 | 81 | 318 | 0.0 | 6.0 | 0.00 | 0.00 | 0.00 | 23 | 1012.0 |
| 20260831163046 | 79 | 306 | 0.0 | 0.0 | 0.00 | 0.00 | 0.00 | 24 | 1012.0 |
| 20260831161549 | 77 | 311 | 0.0 | 0.0 | 0.00 | 0.00 | 0.00 | 22 | 1011.9 |
| 20260831160038 | 74 | 307 | 0.0 | 0.0 | 0.00 | 0.00 | 0.00 | 19 | 1011.9 |
| 20260831154538 | 70 | 318 | 0.0 | 0.0 | 0.00 | 0.00 | 0.00 | 21 | 1011.9 |
| 20260831153028 | 65 | 198 | 0.0 | 0.0 | 0.00 | 0.00 | 0.00 | 25 | 1011.8 |
| 20260831151525 | 63 | 196 | 0.0 | 0.0 | 0.00 | 0.00 | 0.00 | 28 | 1011.6 |
| 20260831150024 | 61 | 196 | 0.0 | 0.0 | 0.00 | 0.00 | 0.00 | 32 | 1011.6 |
| 20260831144520 | 59 | 196 | 0.0 | 0.0 | 0.00 | 0.00 | 0.00 | 33 | 1011.4 |
| 20260831143018 | 58 | 196 | 0.0 | 0.0 | 0.00 | 0.00 | 0.00 | 34 | 1011.1 |
| 20260831141517 | 57 | 196 | 0.0 | 0.0 | 0.00 | 0.00 | 0.00 | 34 | 1010.8 |
| 20260831140016 | 56 | 196 | 0.0 | 0.0 | 0.00 | 0.00 | 0.00 | 34 | 1010.7 |
| 20260831134516 | 56 | 196 | 0.0 | 0.0 | 0.00 | 0.00 | 0.00 | 34 | 1010.4 |
| 20260831133027 | 56 | 196 | 0.0 | 0.0 | 0.00 | 0.00 | 0.00 | 36 | 1010.2 |
| 20260831131517 | 56 | 196 | 0.0 | 0.0 | 0.00 | 0.00 | 0.00 | 34 | 1010.2 |
| 20260831130013 | 56 | 196 | 0.0 | 0.0 | 0.00 | 0.00 | 0.00 | 34 | 1010.2 |
| 20260831124513 | 56 | 196 | 0.0 | 0.0 | 0.00 | 0.00 | 0.00 | 34 | 1009.9 |
| 20260831123015 | 56 | 196 | 0.0 | 0.0 | 0.00 | 0.00 | 0.00 | 34 | 1010.0 |
| 20260831121507 | 57 | 196 | 0.0 | 0.0 | 0.00 | 0.00 | 0.00 | 35 | 1009.9 |
| 20260831120008 | 57 | 196 | 0.0 | 0.0 | 0.00 | 0.00 | 0.00 | 34 | 1010.0 |
| 20260831114504 | 57 | 196 | 0.0 | 0.0 | 0.00 | 0.00 | 0.00 | 34 | 1010.0 |
| 20260831113002 | 57 | 196 | 0.0 | 0.0 | 0.00 | 0.00 | 0.00 | 34 | 1010.2 |
| 20260831111600 | 58 | 196 | 0.0 | 0.0 | 0.00 | 0.00 | 0.00 | 32 | 1010.1 |
| 20260831104610 | 58 | 196 | 0.0 | 0.0 | 0.00 | 0.00 | 0.00 | 33 | 1010.0 |
| 20260831103055 | 58 | 196 | 0.0 | 0.0 | 0.00 | 0.00 | 0.00 | 33 | 1010.1 |
| 20260831101553 | 58 | 196 | 0.0 | 0.0 | 0.00 | 0.00 | 0.00 | 34 | 1010.2 |
| 20260831100103 | 59 | 196 | 0.0 | 0.0 | 0.00 | 0.00 | 0.00 | 35 | 1010.2 |
| 20260831094550 | 59 | 196 | 0.0 | 0.0 | 0.00 | 0.00 | 0.00 | 34 | 1010.4 |
| 20260831093050 | 59 | 196 | 0.0 | 0.0 | 0.00 | 0.00 | 0.00 | 33 | 1010.4 |
| 20260831091547 | 59 | 196 | 0.0 | 0.0 | 0.00 | 0.00 | 0.00 | 34 | 1010.4 |
| 20260831090045 | 59 | 196 | 0.0 | 0.0 | 0.00 | 0.00 | 0.00 | 36 | 1010.5 |
| 20260831084545 | 59 | 196 | 0.0 | 0.0 | 0.00 | 0.00 | 0.00 | 39 | 1010.5 |
| 20260831083045 | 60 | 196 | 0.0 | 0.0 | 0.00 | 0.00 | 0.00 | 37 | 1010.5 |
| 20260831081543 | 60 | 196 | 0.0 | 0.0 | 0.00 | 0.00 | 0.00 | 36 | 1010.5 |
| 20260831080052 | 60 | 196 | 0.0 | 0.0 | 0.00 | 0.00 | 0.00 | 37 | 1010.5 |
| 20260831074536 | 60 | 196 | 0.0 | 0.0 | 0.00 | 0.00 | 0.00 | 33 | 1010.6 |
| 20260831073035 | 60 | 262 | 0.0 | 0.0 | 0.00 | 0.00 | 0.00 | 33 | 1010.6 |
| 20260831071530 | 61 | 262 | 0.0 | 0.0 | 0.00 | 0.00 | 0.00 | 34 | 1010.7 |
| 20260831070030 | 61 | 262 | 0.0 | 0.0 | 0.00 | 0.00 | 0.00 | 38 | 1010.7 |
| 20260831064528 | 61 | 262 | 0.0 | 0.0 | 0.00 | 0.00 | 0.00 | 40 | 1010.8 |
| 20260831063026 | 62 | 262 | 0.0 | 0.0 | 0.00 | 0.00 | 0.00 | 45 | 1010.9 |
| 20260831061525 | 62 | 262 | 0.0 | 0.0 | 0.00 | 0.00 | 0.00 | 46 | 1010.6 |
| 20260831060024 | 62 | 300 | 0.0 | 0.0 | 0.00 | 0.00 | 0.00 | 46 | 1010.7 |
| 20260831054524 | 62 | 299 | 0.0 | 0.0 | 0.00 | 0.00 | 0.00 | 44 | 1010.4 |
| 20260831053023 | 63 | 299 | 0.0 | 0.0 | 0.00 | 0.00 | 0.00 | 44 | 1010.5 |
| 20260831051523 | 63 | 299 | 0.0 | 0.0 | 0.00 | 0.00 | 0.00 | 44 | 1010.5 |